NOAA 16 DEB, 41419

Orbit data source: Space-Track

NOAA 16 DEB, 41419 is space debris in SSO originally from a launch on Thu, 21 Sep 2000 UTC launched from the Air Force Western Test Range (AFWTR). Debris objects in space refer to the collection of defunct objects orbiting the Earth. Examples of debris include non-operational satellites, rocket bodies, and fragments generated from explosions, collisions, or faulty payload assembly.

Loading next visibility...
Identifier
41419, 2000-055KY
Orbit
SSO
Country
Flag of USUS
Related business
Manufacturer
Unknown
Mission
Spacecraft
Bus & Motor
Unknown
Mass
Unknown
Launch date (UTC)
2000-09-21 (25 years ago)
Launch vehicle
Unknown
Launch site
Air Force Western Test Range (AFWTR)
Object type
Payload
Rocket body
Debris
Shape & HBR
Unknown shape, 0.1 m
Radar Cross Section
Small (<0.1 m²)

Expand to show TLE details & history
Last TLE update: 3 days ago

TLE from 3 days ago
0 NOAA 16 DEB
1 41419U 00055KY  26035.57305024  .00042610  00000-0  77851-2 0  9994
2 41419  98.8467 165.1523 0009316 131.5671 228.6330 14.65702181515368
Epoch: 2026-02-04T13:45Z
TLE epoch observation values (Epoch: 2026-02-04T13:45:11.540Z)
Latitude
-0.00007°
Longitude
-175.88347°
Altitude
682.141 km
Speed
7.513 km/s
True Right ascension
11h 00m 36s
True Declination
0° 00' 00"
Sunlit
Object was in full shadow at epoch
Visualization orbit readout
Latitude
Unknown
Longitude
Unknown
Altitude
Unknown
Speed
Unknown
Apparent Right ascension
Unknown
Apparent Declination
Unknown
Sunlit
N/A
Visualization observer readout
Local Sidereal Time
17:34:37
Azimuth
Unknown
Elevation
Unknown
Doppler factor
Unknown
Orbital elements
Apogee altitude
678.494 km
Perigee altitude
665.359 km
Semi-major axis
7,050.063 km
Eccentricity
0.00093
Inclination
98.8467°
RAAN
165.1523°
Arg. of periapsis
131.5671°
True anomaly
228.55294°
Mean anomaly
228.633°
Eccentric anomaly
228.59297°
Mean motion
3.66652 °/min
Orbital period
98.19 mins
BSTAR
0.0077851
Loading maneuver chart data...
Computing Atmospheric mass density...
Loading historical data...
Loading historical data...
Loading historical data...
Loading historical data...
Loading historical data...
Loading historical data...
Loading historical data...

Documentation

Showing up to 5 results
|